Location: Caltech
(34.1382°N, 118.1253°W)
Time: 21:17:35
(UTC-07:00)

CZ-4B DEB - Visible Passes

Search period start: 01 September 2014 00:00
Search period end: 11 September 2014 00:00
Orbit: 842 x 865 km, 98.8° (Epoch: 01 September)

Date Brightness Start Highest point End Pass type
(mag) Time Alt. Az. Time Alt. Az. Time Alt. Az.
01 Sep 5.4 03:44:32 10° NNE 03:49:36 37° E 03:51:18 30° SE visible
01 Sep 5.3 05:25:43 10° NNW 05:30:06 25° WNW 05:33:22 15° WSW visible
02 Sep 5.8 03:33:55 10° NE 03:38:39 29° E 03:40:12 25° SE visible
02 Sep 5.0 05:14:31 10° N 05:19:18 31° WNW 05:22:16 19° WSW visible
03 Sep 6.1 03:23:25 10° NE 03:27:41 23° E 03:29:06 21° ESE visible
03 Sep 4.7 05:03:24 10° N 05:08:29 39° WNW 05:11:10 24° WSW visible
04 Sep 6.4 03:13:04 10° NE 03:16:42 18° E 03:17:59 16° ESE visible
04 Sep 4.4 04:52:21 10° N 04:57:39 50° WNW 05:00:03 30° SW visible
05 Sep 6.7 03:03:02 10° ENE 03:05:42 14° E 03:06:53 13° ESE visible
05 Sep 4.2 04:41:21 10° N 04:46:48 64° WNW 04:48:57 37° SW visible
06 Sep 6.9 02:54:24 10° E 02:54:41 10° E 02:54:57 10° E visible
06 Sep 4.1 04:30:24 10° N 04:35:55 81° WNW 04:37:50 43° SSW visible
07 Sep 4.2 04:19:30 10° NNE 04:25:02 81° ESE 04:26:43 47° S visible
07 Sep 6.1 06:03:11 10° NW 06:05:02 12° WNW 06:06:53 10° W visible
08 Sep 4.5 04:08:39 10° NNE 04:14:08 64° ESE 04:15:37 46° SSE visible
08 Sep 5.9 05:51:17 10° NNW 05:54:18 15° WNW 05:57:18 10° W visible
09 Sep 4.9 03:57:52 10° NNE 04:03:13 50° E 04:04:30 42° SE visible
09 Sep 5.6 05:39:47 10° NNW 05:43:32 19° WNW 05:46:34 13° WSW visible
10 Sep 5.3 03:47:09 10° NNE 03:52:17 39° E 03:53:23 35° SE visible
10 Sep 5.4 05:28:27 10° NNW 05:32:45 24° WNW 05:35:27 17° WSW visible
